Regional Weather Roundup
Issued by NWS

Home | Current Version | Previous Version | Graphics & Text | Print | Product List | Glossary On
Versions: 1 2 3 4 5 6 7 8 9 10 11 12 13 14 15 16 17 18 19 20 21 22 23 24 25 26 27 28 29 30 31 32 33 34 35 36 37 38 39 40 41 42 43 44 45 46 47 48 49 50
000
ASUS45 KBOU 170607
RWRCO

WEATHER ROUNDUP FOR COLORADO
NATIONAL WEATHER SERVICE DENVER/BOULDER CO
1200 AM MDT WED SEP 17 2014

NOTE: "FAIR" INDICATES FEW OR NO CLOUDS BELOW 12000 FEET WITH NO
SIGNIFICANT WEATHER AND/OR OBSTRUCTIONS TO VISIBILITY.

COZ001>005-013-030-031-170700-
...NORTHWEST COLORADO...

CITY           SKY/WX    TMP DP  RH WIND       PRES   REMARKS
CRAIG          CLEAR     49  40  71 SE5       30.20S
HAYDEN         CLEAR     52  34  50 E10       30.22F
MEEKER         CLEAR     51  40  65 NE9       30.22F
MOUNT WERNER   NOT AVBL
STEAMBOAT SPGS CLEAR     52  36  54 CALM      30.25F
WALDEN         PTCLDY    41  32  70 SE9       30.32F
$$

COZ006>008-011-170700-
...WEST CENTRAL VALLEYS...

CITY           SKY/WX    TMP DP  RH WIND       PRES   REMARKS
GRAND JUNCTION CLEAR     65  42  43 SE3       30.07F
MONTROSE       CLEAR     64  40  41 SE13      30.18S
EAGLE          CLEAR     54  41  62 SE3       30.27R
RIFLE          CLEAR     60  41  49 CALM      30.16S
DELTA          CLEAR     64  44  46 NE6       30.13S
NUCLA          CLEAR     63  37  39 E8        30.21S
$$

COZ017>023-064>068-170700-
...SOUTHWEST COLORADO...

CITY           SKY/WX    TMP DP  RH WIND       PRES   REMARKS
DURANGO        PTCLDY    58  45  62 E3        30.25S
CORTEZ         CLEAR     55  49  80 CALM      30.19S
PAGOSA SPRINGS PTCLDY    52  41  66 CALM      30.33F
TELLURIDE      NOT AVBL
WOLF CREEK PAS PTCLDY    43  37  81 SW9       30.60F
$$

COZ009-010-012-014-032>034-037-058>063-170700-
...CENTRAL COLORADO...

CITY           SKY/WX    TMP DP  RH WIND       PRES   REMARKS
ASPEN          CLEAR     51  35  54 SW8         N/A
BUENA VISTA    CLEAR     55  31  39 W12       30.33S
COPPER MTN     CLEAR     54  30  40 S8        30.62S
BERTHOUD PASS  FAIR      41  41 100 NW14      30.64F
COTTONWOOD PAS CLEAR     59  28  31 W6        30.46F
GUNNISON       CLEAR     52  34  50 N5        30.34S
KREMMLING      CLEAR     41  34  75 CALM      30.32S
LEADVILLE      CLEAR     40  28  62 NE5       30.46S
MONARCH PASS   PTCLDY    46  30  53 E14       30.70S
SALIDA         CLEAR     60  38  43 SW5       30.37S
SUNLIGHT       CLEAR     55  34  44 NW3       30.54F
WILKERSON PASS NOT AVBL
$$

COZ069>075-170700-
...SAN LUIS VALLEY/SANGRE DE CRISTO MOUNTAINS...

CITY           SKY/WX    TMP DP  RH WIND       PRES   REMARKS
ALAMOSA        CLEAR     53  43  68 E9        30.28F
LA VETA PASS   NOT AVBL
SAGUACHE       PTCLDY    54  37  54 NW6       30.33S
$$

COZ035-036-038>040-170700-
...NORTHERN COLORADO FRONT RANGE...

CITY           SKY/WX    TMP DP  RH WIND       PRES   REMARKS
DENVER INTL AP PTCLDY    66  39  37 S17       30.11F
DMNS CITY PARK   N/A     63  44  50 S5        30.11F
AURORA         PTCLDY    61  40  45 S10       30.14F
FRONT RANGE AP CLEAR     64  41  42 S12       30.12F
ERIE MUNI ARPT CLEAR     56  44  64 S3        30.10S
BOULDER MUN AP CLEAR     63  39  42 SW8       30.10F
CENTENNIAL     CLEAR     61  38  42 S9        30.15F
BROOMFIELD     CLEAR     63  39  42 SW3       30.13F
FORT COLLINS   CLEAR     66  39  37 SE3       30.10F
LONGMONT       CLEAR     62  43  49 W7        30.11F
$$

COZ041-046-047-076>085-087-088-170700-
...PIKES PEAK/PALMER DIVIDE AND SOUTHERN FOOTHILLS...

CITY           SKY/WX    TMP DP  RH WIND       PRES   REMARKS
COLO. SPRINGS  PTCLDY    57  37  47 NE9       30.20F
A. F. ACADEMY  CLEAR     51  40  64 N12       30.22F
ELLICOTT       NOT AVBL
FALCON         CLEAR     58  35  43 N3        30.25F
FORT CARSON    CLEAR     60  41  50 NW7       30.17F
LIMON          PTCLDY    49  41  74 N3        30.14S
MONUMENT HILL  CLEAR     54  34  47 S10       30.24F
TRINIDAD       CLEAR     67  52  58 W17       30.16S
$$

COZ042>045-048>051-090-091-170700-
...NORTHEAST COLORADO...

CITY           SKY/WX    TMP DP  RH WIND       PRES   REMARKS
GREELEY ARPT   CLEAR     54  39  58 NE7       30.09F
AKRON          CLEAR     61  43  51 S14G24    30.08S
BURLINGTON     CLEAR     55  48  77 W6        30.05S
WRAY           CLEAR     53  48  82 SW5       30.01S
STERLING       CLEAR     55  50  82 W7        30.03S
HOLYOKE        CLEAR     55  50  82 W5        30.01S
FORT MORGAN    CLEAR     56  41  56 SW5       30.07F
$$

COZ086-089-092>099-170700-
...SOUTHEAST COLORADO...

CITY           SKY/WX    TMP DP  RH WIND       PRES   REMARKS
PUEBLO         CLEAR     66  36  32 VRB3      30.07F
LA JUNTA       CLEAR     65  47  52 SW3       30.04S
LAMAR          CLEAR     61  52  72 W3        30.00S
SPRINGFIELD      N/A     60  57  89 SW8       30.06F
$$



USA.gov is the U.S. government's official web portal to all federal, state and local government web resources and services.